KB0BDN-13 Weather Reports


time (UTC)temp
C
wind
direction
speed
KPH
gust
KPH
rain 1hr
cm
rain 24hr
cm
rain mn
cm
humidity
%
barometer
mb
20260510174707 2 304 0.0 16.1 0.00 0.05 0.05 64 1014.5
20260510173207 2 323 9.7 12.9 0.00 0.05 0.05 64 1014.0
20260510171707 2 12 4.8 17.7 0.00 0.05 0.05 71 1014.0
20260510170207 1 350 0.0 6.4 0.00 0.05 0.05 77 1014.2
20260510164707 2 288 4.8 16.1 0.03 0.05 0.05 69 1013.6
20260510163207 3 287 16.1 16.1 0.03 0.05 0.05 71 1013.6
20260510161707 2 302 9.7 16.1 0.03 0.05 0.05 73 1013.5
20260510160207 1 17 4.8 12.9 0.03 0.05 0.05 74 1013.2
20260510154707 2 5 4.8 16.1 0.05 0.05 0.05 74 1013.0
20260510153207 1 331 3.2 4.8 0.03 0.03 0.03 83 1012.9
20260510151707 0 323 6.4 14.5 0.03 0.03 0.03 87 1012.8
20260510150207 0 339 8.0 11.3 0.03 0.03 0.03 82 1012.5
20260510144707 0 332 6.4 11.3 0.00 0.00 0.00 87 1012.4
20260510143207 0 325 0.0 4.8 0.00 0.00 0.00 84 1012.2
20260510141707 0 331 0.0 14.5 0.00 0.00 0.00 85 1012.1
20260510140207 0 311 3.2 8.0 0.00 0.00 0.00 86 1011.8
20260510134707 0 325 3.2 8.0 0.00 0.00 0.00 88 1011.7
20260510133207 0 336 0.0 0.0 0.00 0.00 0.00 89 1011.4
20260510131707 0 339 0.0 16.1 0.00 0.00 0.00 90 1011.3
20260510130207 0 319 0.0 0.0 0.00 0.00 0.00 91 1011.3
20260510124707 0 329 1.6 14.5 0.00 0.00 0.00 91 1011.2
20260510123207 0 329 0.0 4.8 0.00 0.00 0.00 92 1010.7
20260510121707 0 330 0.0 6.4 0.00 0.00 0.00 93 1010.7
20260510120207 0 333 4.8 4.8 0.00 0.00 0.00 94 1010.3
20260510114707 0 333 0.0 9.7 0.00 0.00 0.00 94 1010.2
20260510113207 0 320 6.4 6.4 0.00 0.00 0.00 95 1010.1
20260510111707 0 319 1.6 6.4 0.00 0.00 0.00 95 1010.0
20260510110207 0 317 0.0 3.2 0.00 0.00 0.00 95 1009.6
20260510104707 0 317 0.0 4.8 0.00 0.00 0.00 95 1009.4
20260510103207 0 317 0.0 0.0 0.00 0.00 0.00 95 1009.1
20260510101707 0 319 0.0 6.4 0.00 0.00 0.00 95 1008.9
20260510100207 0 319 0.0 0.0 0.00 0.00 0.00 95 1008.8
20260510094707 0 319 4.8 6.4 0.00 0.00 0.00 95 1008.7
20260510093207 0 321 4.8 4.8 0.00 0.00 0.00 95 1008.4
20260510091707 0 314 0.0 6.4 0.00 0.00 0.00 95 1008.4
20260510090207 0 314 0.0 4.8 0.00 0.00 0.00 95 1008.1
20260510084707 0 313 0.0 6.4 0.00 0.00 0.00 95 1007.9
20260510083207 0 314 0.0 4.8 0.00 0.00 0.00 95 1007.8
20260510081706 0 314 0.0 4.8 0.00 0.00 0.00 94 1007.8
20260510080206 0 314 0.0 4.8 0.00 0.00 0.00 94 1007.5
20260510074706 0 314 0.0 6.4 0.00 0.00 0.00 94 1007.6
20260510073206 0 314 0.0 1.6 0.00 0.00 0.00 94 1007.5
20260510071706 0 314 0.0 6.4 0.00 0.00 0.00 94 1007.3
20260510070206 0 314 0.0 0.0 0.00 0.00 0.00 94 1007.2
20260510064706 0 314 4.8 4.8 0.00 0.00 0.00 94 1007.1
20260510063206 0 314 0.0 0.0 0.00 0.00 0.00 94 1007.1
20260510061706 0 314 0.0 4.8 0.00 0.00 0.00 95 1007.0
20260510060206 0 314 0.0 1.6 0.00 0.00 0.00 94 1006.8
20260510054706 0 314 0.0 1.6 0.00 0.00 0.00 100 1006.7
20260510053206 0 314 0.0 1.6 0.00 0.00 0.00 94 1006.5
20260510051706 0 314 0.0 3.2 0.00 0.00 0.00 94 1006.6
20260510050206 0 314 0.0 0.0 0.00 0.00 0.00 94 1006.5
20260510044706 0 317 0.0 6.4 0.00 0.00 0.00 94 1006.6
20260510043206 0 317 0.0 0.0 0.00 0.00 0.00 93 1006.3
20260510041706 0 317 0.0 4.8 0.00 0.00 0.00 93 1006.2
20260510040206 0 317 0.0 0.0 0.00 0.00 0.00 92 1006.1
20260510034706 0 317 3.2 11.3 0.00 0.00 0.00 92 1006.1
20260510033206 0 318 0.0 11.3 0.00 0.00 0.00 91 1005.9
20260510031706 0 317 0.0 11.3 0.00 0.00 0.00 90 1006.0
20260510030206 0 329 0.0 0.0 0.00 0.00 0.00 91 1005.9
20260510024706 0 329 0.0 4.8 0.00 0.00 0.00 91 1005.9
20260510023206 1 329 0.0 0.0 0.00 0.00 0.00 91 1005.9
20260510021706 1 333 0.0 6.4 0.00 0.00 0.00 91 1005.9
20260510020206 0 333 0.0 0.0 0.00 0.00 0.00 90 1005.6
20260510014706 1 336 0.0 12.9 0.00 0.00 0.00 89 1005.3
20260510013206 1 281 0.0 11.3 0.00 0.00 0.00 86 1005.1
20260510011706 1 302 0.0 1.6 0.00 0.00 0.00 88 1004.4
20260510010206 1 302 0.0 0.0 0.00 0.00 0.00 88 1004.1
20260510004706 1 302 0.0 3.2 0.00 0.00 0.00 87 1004.1
20260510003206 2 302 0.0 1.6 0.00 0.00 0.00 87 1004.0
20260510001706 2 348 8.0 24.1 0.00 0.00 0.00 80 1004.1
20260510000206 3 301 0.0 3.2 0.00 0.00 0.00 70 1003.5
20260509234706 3 348 0.0 11.3 0.00 0.00 0.00 74 1003.5
20260509233206 2 15 0.0 11.3 0.00 0.00 0.00 80 1003.5
20260509231706 3 355 17.7 22.5 0.00 0.00 0.00 74 1003.5
20260509230206 5 314 8.0 8.0 0.00 0.00 0.00 52 1002.5
20260509224706 6 306 0.0 17.7 0.00 0.00 0.00 52 1002.3
20260509223206 6 315 0.0 11.3 0.00 0.00 0.00 52 1002.3
20260509221706 5 306 3.2 17.7 0.00 0.00 0.00 54 1002.2
20260509220206 6 313 14.5 14.5 0.00 0.00 0.00 53 1002.2
20260509214706 5 296 0.0 25.7 0.00 0.00 0.00 55 1002.1
20260509213206 5 346 12.9 19.3 0.00 0.00 0.00 57 1001.8
20260509211706 5 15 12.9 17.7 0.00 0.00 0.00 57 1001.7
20260509210206 5 291 1.6 16.1 0.00 0.00 0.00 59 1001.6
20260509204706 4 348 12.9 19.3 0.00 0.00 0.00 59 1001.6
20260509203206 5 308 4.8 12.9 0.00 0.00 0.00 58 1001.0
20260509201706 4 336 0.0 17.7 0.00 0.00 0.00 61 1001.1
20260509200206 4 323 6.4 11.3 0.00 0.00 0.00 61 1001.0
20260509194706 5 294 0.0 17.7 0.00 0.00 0.00 60 1000.8
20260509193206 4 280 9.7 16.1 0.00 0.00 0.00 61 1000.5
20260509191706 5 307 9.7 17.7 0.00 0.00 0.00 56 1000.1
20260509190206 5 325 4.8 11.3 0.00 0.00 0.00 57 1000.0
20260509184706 3 347 4.8 19.3 0.00 0.00 0.00 62 1000.0
20260509183205 4 355 3.2 11.3 0.00 0.00 0.00 58 999.8
20260509181705 5 324 6.4 17.7 0.00 0.00 0.00 55 999.4
20260509180205 4 296 11.3 17.7 0.00 0.00 0.00 56 999.4